AirNav   Get $300 off a Bose A20
 
 1038 users online  

PAOC Portage Creek Airport
Portage Creek, Alaska, USA

GOING TO PORTAGE CREEK?


FAA INFORMATION EFFECTIVE 28 MARCH 2019

Location

FAA Identifier: A14
Lat/Long: 58-54-23.4900N / 157-42-40.2000W
58-54.391500N / 157-42.670000W
58.9065250 / -157.7111667
(estimated)
Elevation: 129 ft. / 39.3 m (surveyed)
Variation: 21E (2010)
Time zone: UTC -8 (UTC -9 during Standard Time)
Zip code: 99576

Airport Operations

Airport use: Open to the public
Activation date: 08/1975
Control tower: no
ARTCC: ANCHORAGE CENTER
FSS: DILLINGHAM FLIGHT SERVICE STATION [907-842-5275]
Alternate FSS: ENA KENAI FLIGHT SERVICE STATION [1-866-864-1737]
NOTAMs facility: DLG (NOTAM-D service available)
Attendance: UNATNDD
Wind indicator: yes
Segmented circle: yes
VEGETATION OVERGROWING SEG CIRCLE.

Airport Communications

CTAF: 122.9
  • COMMUNICATIONS PRVDD BY DILLINGHAM RADIO ON FREQ 122.55 0745-2345 (KEMUK MOUNTAIN RCO) OTHER TIMES CTC KENAI AFSS.

Nearby radio navigation aids

VOR radial/distance  VOR name  Freq  Var
DLGr086/26.6DILLINGHAM VOR/DME116.4015E
AKNr274/31.7KING SALMON VORTAC112.8016E

 
NDB name  Hdg/Dist  Freq  Var  ID
WOOD RIVER087/26.542915EBTS -... - ...
CHINOOK273/30.735516EAUB .- ..- -...

Airport Services

Airframe service: NONE
Powerplant service: NONE
Bottled oxygen: NONE
Bulk oxygen: NONE

Runway Information

Runway 10/28

Dimensions: 1920 x 60 ft. / 585 x 18 m
Surface: gravel/dirt, in fair condition
VERY SOFT WITH DEEP LOOSE GRAVEL. FIRST 200 FT OF RY 28 CLSD WITH BRUSH GROWING ON EDGES.
Runway edge markings: RY MKD WITH REFLECTIVE ORANGE CONES.
Operational restrictions: SLOPES UP TO E END 1.5 %. NO LINE OF SIGHT BETWEEN RY ENDS.
RUNWAY 10  RUNWAY 28
Latitude: 58-54.481333N58-54.361167N
Longitude: 157-42.789833W157-42.226500W
Elevation: 99.7 ft.128.5 ft.
Traffic pattern: leftleft
Runway heading: 091 magnetic, 112 true271 magnetic, 292 true
Touchdown point: yes, no lightsyes, no lights
Obstructions: 4 ft. brush10 ft. brush, 120 ft. both sides of centerline

Runway 1/19

Dimensions: 1470 x 60 ft. / 448 x 18 m
Surface: gravel/dirt, in good condition
RY 01/19 SFC RUTS 4 IN X 6 IN DEEP 300 FT FM THLD RY 01 WHERE ACFT TURN AROUND FOR TKOF.
Runway edge markings: RY 01/19 MKD WITH REFLECTIVE ORANGE CONES.
RUNWAY 1  RUNWAY 19
Latitude: 58-54.245500N58-54.459333N
Longitude: 157-42.989500W157-42.772833W
Elevation: 79.8 ft.100.7 ft.
Traffic pattern: leftleft
Runway heading: 006 magnetic, 027 true186 magnetic, 207 true
Touchdown point: yes, no lightsyes, no lights
Obstructions: 25 ft. trees, 12 ft. from runway, 120 ft. both sides of centerline6 ft. brush, 5 ft. from runway, 85 ft. right of centerline

Airport Ownership and Management from official FAA records

Ownership: Publicly-owned
Owner: ALASKA DOT&PF CENTRAL REGION
PO BOX 196900
ANCHORAGE, AK 99519-6900
Phone 907-269-0760
Manager: NORMAN HAYANO
BOX 250
DILLINGHAM, AK 99576
Phone 907-842-5511

Airport Operational Statistics

Aircraft operations: avg 58/month *
100% air taxi
* for 12-month period ending 31 December 2017

Additional Remarks

RY COND NOT MNTRD; RCMD VISUAL INSPECTION PRIOR TO USE.
RY 10 & RY 01 - SAFETY AREAS SOFT; MAY BE UNUSBL. RY 28 SAFETY AREA ERODING NEAR BLUFF.
NO WINTER MAINT RY 10/28 FROM 1 OCT THRU MAY 1.
RY VERY SOFT; DEEP RUTS MAY DEVELOP WHEN SFC WET.
WX CAMERA AVBL ON INTERNET AT HTTP://AVCAMS.FAA.GOV
BRUSH AND TREES ENCROACHING ON ALL RY SFCS.

Instrument Procedures

There are no published instrument procedures at PAOC.

Some nearby airports with instrument procedures:

PFWS - South Naknek Nr 2 Airport (25 nm SE)
PFCL - Clarks Point Airport (26 nm W)
PADL - Dillingham Airport (26 nm W)
PANW - New Stuyahok Airport (34 nm N)
PAKN - King Salmon Airport (36 nm E)
 
Loc | Ops | Rwys | IFR | FBO | Links
Com | Nav | Svcs | Stats | Notes

Crowley
 
Area around PAOC (Portage Creek Airport)
 
Road maps at: MapQuest Bing Google
 
Aerial photo
WARNING: Photo may not be current or correct
Aerial photo of PAOC (Portage Creek Airport)
Photo by LL
Photo taken 03-Jul-2013
looking southwest.

Do you have a better or more recent aerial photo of Portage Creek Airport that you would like to share? If so, please send us your photo.

 
Sectional chart

 
Airport distance calculator
Flying to Portage Creek Airport? Find the distance to fly.

From to PAOC

Sunrise and sunset
Times for 21-Apr-2019
 Local
(UTC-8)
 Zulu
(UTC)
Morning civil twilight06:1514:15
Sunrise07:0115:01
Sunset21:5805:58
Evening civil twilight22:4506:45

Current date and time
Zulu (UTC)  21-Apr-2019 23:39:58
Local (UTC-8)  21-Apr-2019 15:39:58
 
METAR
PFWS 
25nm SE 
212256Z AUTO 28014G21KT 10SM FEW027 BKN041 OVC060 01/M08 A2936 RMK AO2 SLP946 T00111078 PWINO FZRANO $
PFCL 
26nm W 
212320Z AUTO 28008KT 10SM -RA FEW014 BKN026 OVC042 02/M06 A2937 RMK AO2 P0000 FZRANO TSNO
PADL 
26nm W 
212256Z VRB06KT 10SM BKN047 03/M06 A2937 RMK AO2 SLP950 T00281061
PANW 
35nm N 
212256Z AUTO 30017G23KT 10SM BKN044 OVC075 01/M09 A2932 RMK AO2 SLP944 T00061094 FZRANO
PAKN 
36nm E 
212254Z 27015G23KT 9SM -SN FEW043 OVC060 02/M07 A2931 RMK AO2 SNB48 SLP926 P0000 T00221072
PAMB 
42nm W 
212256Z AUTO 29007KT 10SM -RA BKN040 BKN048 OVC060 01/M08 A2938 RMK AO2 RAB50 SLP955 P0000 T00061078 FZRANO $
PAII 
45nm S 
212256Z AUTO 29010KT 10SM FEW027 OVC065 02/M06 A2940 RMK AO2 SLP958 T00221061 FZRANO
TAF
PADL 
26nm W 
212208Z 2122/2218 29011KT P6SM VCSH BKN050 FM220600 31004KT P6SM VCSH BKN080
NOTAMs
Click for the latest NOTAMs
NOTAMs are issued by the DoD/FAA and will open in a separate window not controlled by AirNav.

 

 
 

Would you like to see your business listed on this page?

 If your business provides an interesting product or service to pilots, flight crews, aircraft, or users of the Portage Creek Airport, you should consider listing it here.  To start the listing process, click on the button below
 
Add a business
 

Other Pages about Portage Creek Airport

Update a link
 
Copyright © AirNav, LLC. All rights reserved. Privacy Policy  Contact